Lapse_Rate
2.7 2.9 3.6 4.5 5.1 5.2 5.5 4.1 6.3 3.1 3.3 6.0 6.5 6.5 6.5 6.5 6.3 6.2 6.5 6.5 6.5 6.5 6.5 6.5 6.5 6.5 6.5 6.6 6.6 6.5 6.5 6.5 6.5 6.5 6.5 6.5 6.5 6.5 6.5 6.5 6.5 6.5 6.5 6.5
3.1 3.2 3.6 4.5 5.0 6.4 5.8 5.6 4.7 3.7 5.1 6.5 6.5 6.3 6.5 6.2 6.5 6.5 6.5 6.5 6.5 6.5 6.5 6.5 6.5 6.5 6.6 6.3 6.5 6.5 6.5 6.5 6.5 6.5 6.5 6.5 6.5 6.5 6.5 6.5 6.5 6.5 6.5 6.5
3.3 3.5 3.8 4.0 4.5 5.5 5.3 4.0 6.5 5.3 3.7 4.4 6.5 6.5 6.5 6.5 5.7 6.4 6.3 6.5 6.5 6.5 6.5 6.5 6.5 6.5 6.5 6.3 6.5 6.9 6.7 6.5 6.5 6.5 6.5 6.5 6.5 6.5 6.5 6.5 6.5 6.5 6.5 6.5
3.5 3.7 4.1 4.2 4.3 4.9 5.5 3.2 5.7 5.0 6.5 4.9 5.9 6.5 6.5 6.5 6.5 6.3 5.9 6.5 6.5 6.5 6.5 6.5 6.5 6.5 6.5 6.4 6.5 6.5 6.5 6.5 6.5 6.5 6.5 6.5 6.5 6.5 6.5 6.5 6.5 6.5 6.5 6.5
3.3 3.8 5.0 5.0 4.4 4.9 2.9 4.1 5.6 5.4 6.0 5.5 6.4 6.5 6.5 6.5 6.5 6.5 6.5 6.5 6.5 6.5 6.5 6.5 6.5 6.5 6.5 6.5 6.5 6.5 6.5 6.5 6.5 6.5 6.5 6.5 6.5 6.5 6.5 6.5 6.5 6.5 6.5 6.5
4.3 4.9 5.9 6.6 5.8 4.6 3.9 5.0 5.3 5.7 5.2 5.1 6.5 6.5 6.5 6.5 6.5 6.1 6.7 6.4 6.5 6.5 6.5 6.8 6.7 6.9 6.6 6.5 6.5 6.5 6.5 6.5 6.5 6.5 6.5 6.5 6.5 6.5 6.5 6.5 6.5 6.5 6.5 6.5
5.8 7.1 7.7 7.8 8.1 6.7 3.6 4.0 5.1 5.9 6.5 6.5 6.5 6.4 6.5 6.5 6.4 6.5 6.2 5.9 6.4 6.2 5.9 6.9 6.5 6.7 6.6 6.6 6.5 6.6 6.5 6.5 6.5 6.5 6.5 6.5 6.5 6.5 6.5 6.5 6.5 6.5 6.5 6.5
4.7 5.6 7.0 7.6 7.6 7.5 4.5 3.7 4.8 5.8 6.5 6.2 6.1 5.0 5.5 5.1 4.9 6.1 6.1 5.6 5.7 5.3 5.9 6.5 6.5 6.5 6.5 6.5 6.5 6.5 6.5 6.5 6.5 6.5 6.5 6.5 6.5 6.5 6.5 6.5 6.5 6.5 6.5 6.5
3.9 4.3 4.9 6.4 7.7 7.6 5.7 5.3 5.3 5.5 6.5 5.9 5.5 4.2 3.2 6.5 6.5 6.5 4.8 4.9 4.5 5.6 6.4 6.5 6.5 6.5 6.5 6.5 6.5 6.5 6.5 6.5 6.5 6.5 6.5 6.5 6.5 6.5 6.8 6.5 6.5 6.5 6.6 6.5
3.9 5.5 6.7 8.3 8.4 8.9 6.6 6.0 6.1 5.8 6.0 4.3 4.9 6.2 6.5 5.4 6.2 6.5 3.0 3.2 4.9 5.0 6.5 6.5 6.5 6.5 6.5 6.5 6.5 6.5 6.5 6.5 6.5 6.5 6.5 6.5 6.5 6.6 6.8 6.5 6.5 6.8 6.9 6.9
4.1 5.0 5.9 7.6 8.0 8.2 7.8 6.1 6.6 6.3 6.3 6.9 5.5 6.3 5.8 6.2 5.9 6.5 3.5 5.8 5.5 5.6 6.5 6.5 6.5 6.5 6.5 6.5 6.5 6.5 6.5 6.5 6.5 6.5 6.5 6.5 6.9 6.6 6.5 6.6 7.0 7.0 7.1 7.0
4.0 4.6 5.1 6.2 7.4 8.4 8.3 6.6 6.2 5.9 6.4 6.7 5.3 5.8 6.2 6.8 6.2 6.1 6.0 5.8 4.6 6.1 6.5 6.5 6.5 6.5 6.5 6.5 6.5 6.5 6.5 6.5 6.5 6.5 6.5 6.7 6.9 6.9 7.0 6.9 7.1 7.2 7.2 7.2
4.2 5.6 6.8 7.8 8.2 8.4 8.4 6.6 4.9 5.7 5.8 5.6 5.2 3.5 4.8 4.3 3.7 4.8 6.4 4.0 3.8 5.2 5.9 6.5 6.4 6.5 6.5 6.5 6.5 6.5 6.5 6.5 6.5 6.5 6.5 6.6 6.8 7.1 6.8 6.3 6.5 6.7 6.8 6.5
4.5 4.7 5.2 6.8 7.7 8.0 8.7 6.6 6.5 6.4 5.2 6.4 4.1 3.4 4.6 3.6 3.8 5.4 5.5 5.5 5.3 5.3 5.8 6.3 6.5 6.5 6.1 6.5 6.5 6.5 6.6 6.6 6.5 6.5 6.6 6.6 6.7 6.4 5.8 5.4 5.8 5.2 5.2 6.7
4.0 4.4 5.0 6.0 7.2 8.0 6.9 5.9 5.8 6.0 6.2 6.5 6.3 5.0 2.7 2.7 1.4 2.0 2.2 2.0 2.8 5.2 5.0 6.2 6.5 5.2 6.1 6.4 6.5 6.5 6.7 6.5 6.5 6.5 6.8 6.7 6.9 6.3 6.0 4.6 4.9 5.2 6.1 5.9
3.9 4.4 5.3 6.1 7.6 8.3 6.5 5.5 5.8 6.3 6.1 6.2 6.5 1.2 0.2 2.2 1.9 2.5 1.5 3.8 4.6 4.9 3.3 4.2 4.4 6.1 6.5 6.5 6.5 6.5 6.9 7.0 7.0 6.8 5.6 5.7 6.4 5.7 5.6 5.0 4.9 4.3 5.5 5.5
3.9 4.5 5.9 7.5 7.2 6.2 5.7 6.0 5.9 6.4 6.3 6.0 5.1 4.6 1.8 -0.7 -0.1 0.1 1.7 5.4 6.1 4.4 2.3 3.5 6.3 5.8 5.7 6.5 6.5 6.7 6.7 6.2 6.0 5.1 4.8 5.3 4.8 5.9 5.2 5.0 4.3 4.5 4.5 4.7
4.2 5.0 7.2 7.6 6.7 5.9 4.7 4.6 5.5 5.8 5.8 4.9 6.5 6.6 3.3 1.5 1.7 2.4 0.6 2.6 2.4 2.9 3.5 5.4 6.4 5.2 3.6 6.5 6.4 6.3 6.2 5.4 5.1 5.4 5.6 5.7 5.6 5.5 5.8 5.4 5.0 4.6 4.7 4.5
4.6 6.1 6.6 4.7 3.8 3.9 4.5 6.8 5.9 5.1 4.9 2.1 2.8 6.5 6.5 2.1 1.5 1.4 3.7 3.2 6.3 3.8 6.3 6.4 6.5 6.5 6.5 6.4 5.6 6.2 6.3 6.2 6.3 5.9 6.1 5.9 6.0 6.0 5.8 5.8 5.4 5.4 5.0 4.7
4.4 4.2 2.4 3.8 4.3 4.9 5.2 1.5 0.5 0.8 -0.6 -0.2 2.9 2.8 6.5 3.4 2.3 3.2 3.9 3.9 6.5 6.5 6.4 5.6 6.5 6.5 6.4 5.2 4.8 5.2 5.8 5.9 5.9 6.0 6.5 6.2 6.0 5.9 5.7 5.8 5.6 5.6 5.3 4.6
0.9 2.4 2.7 4.4 4.1 2.7 -1.1 0.5 3.6 1.1 4.0 3.7 4.6 2.4 5.9 3.1 6.3 6.5 5.2 6.4 6.5 6.5 6.5 6.5 6.5 6.5 4.6 5.0 4.8 4.8 4.9 4.9 5.4 5.3 5.4 5.3 5.4 5.1 5.0 4.8 4.8 4.8 4.6 4.3
3.0 4.2 4.0 1.5 -0.4 -0.5 5.6 6.5 4.3 6.1 6.5 4.9 4.6 3.9 4.1 3.3 3.7 4.5 5.0 6.5 6.5 6.5 5.8 6.5 6.5 6.5 5.5 4.6 4.4 4.6 4.3 4.2 4.4 4.4 4.2 4.3 4.7 4.5 4.4 4.4 4.2 4.1 4.1 3.7
4.3 5.2 3.2 1.5 1.3 6.5 6.5 6.5 6.5 6.5 6.0 3.4 3.4 4.6 1.6 3.3 3.9 3.8 6.4 6.5 6.5 6.1 6.5 6.5 6.5 6.5 5.8 5.2 4.6 4.8 4.8 4.2 4.1 3.8 3.7 3.8 3.9 4.1 3.6 3.6 3.9 3.8 3.4 3.2
2.4 2.0 6.5 6.4 6.5 6.5 6.5 6.5 6.2 4.4 4.0 2.5 1.5 2.1 3.3 3.3 5.8 5.7 6.5 6.5 6.5 6.5 6.5 6.5 6.5 5.7 5.5 5.6 5.4 4.7 4.5 4.3 4.1 3.8 3.5 3.4 3.5 3.6 3.6 3.6 3.4 3.1 3.1 3.1
3.3 2.8 6.5 6.5 4.7 2.1 -0.3 -1.2 2.1 1.5 0.3 -0.4 0.4 2.7 3.9 5.8 6.5 6.5 6.5 6.5 6.5 6.5 6.5 6.5 6.0 6.5 6.2 6.1 6.3 6.0 5.3 4.9 4.7 4.3 4.1 3.7 3.2 3.1 3.0 2.0 2.0 2.7 2.7 2.8
0.9 1.6 5.1 4.9 5.1 3.3 0.6 -1.7 -0.3 -1.3 -2.4 -0.6 1.1 4.3 6.5 6.5 6.5 6.5 6.5 6.5 6.5 6.5 6.4 6.4 6.1 6.3 6.0 6.0 6.3 6.9 6.5 6.0 5.8 5.2 4.9 4.5 3.3 2.5 2.0 1.9 1.3 1.5 2.8 2.3
1.6 3.0 3.4 2.5 1.8 1.9 0.1 -2.6 -1.4 -3.6 -2.4 5.9 1.6 6.5 6.5 5.5 6.5 6.5 6.5 6.5 6.5 6.6 7.0 7.0 5.8 5.3 5.0 5.3 6.0 6.3 6.3 6.3 5.7 5.2 5.1 4.3 3.6 2.8 3.4 2.0 2.0 1.4 3.2 2.0
Wind_Speed
18 18 17 21 18 1 2 2 2 3 3 2 1 2 3 5 5 1 4 1 1 4 3 5 4 5 3 4 3 5 1 2 4 8 14 6 3 4 3 1 4 4 6 8
18 20 19 20 21 4 1 2 2 2 1 1 3 4 5 4 4 3 3 3 6 0 4 4 3 4 4 5 3 3 3 3 4 6 3 3 4 1 3 3 5 8 6 7
18 18 20 18 19 15 2 2 3 1 3 1 1 4 7 5 6 5 4 4 3 3 4 6 6 4 3 4 2 3 5 3 6 7 7 2 8 14 13 3 6 10 12 23
15 18 18 21 20 14 2 3 1 1 4 3 1 2 6 8 6 5 5 3 4 5 4 5 5 6 4 8 7 2 3 4 6 11 12 10 12 14 17 14 14 10 16 16
15 14 16 19 23 11 4 2 2 0 3 2 2 3 3 4 3 4 7 4 10 13 11 10 22 18 7 7 3 3 3 4 2 11 10 11 13 14 12 16 16 10 9 9
13 13 13 13 17 9 3 1 1 0 3 1 3 4 4 10 12 6 4 10 14 12 11 9 15 14 14 10 9 5 3 1 2 9 4 6 6 3 3 3 2 4 4 8
14 13 11 9 8 7 2 1 2 1 4 2 2 6 11 8 7 7 11 6 3 5 7 13 11 15 17 15 16 13 11 7 3 3 2 3 2 2 2 3 8 11 10 12
12 13 14 14 14 0 2 1 2 1 3 4 6 3 3 8 7 5 6 5 4 7 6 5 6 5 5 3 2 4 11 7 3 2 3 5 2 4 3 2 5 11 12 13
11 12 12 12 12 7 2 2 2 1 2 4 4 3 3 4 4 4 5 4 4 3 2 3 3 3 4 5 7 3 1 5 2 2 2 4 1 4 10 8 2 13 13 12
8 9 8 8 8 9 2 2 4 1 2 3 4 2 3 3 2 3 4 6 6 4 2 1 2 4 2 2 3 4 3 2 3 7 5 3 8 17 10 2 3 12 11 11
12 13 13 14 13 10 2 3 9 3 2 6 7 3 3 4 2 3 4 2 3 2 2 1 2 2 3 3 3 2 3 1 2 2 2 4 18 2 5 7 8 9 11 12
10 11 11 11 12 12 9 2 2 5 3 5 4 6 10 11 11 4 2 2 3 2 2 2 2 2 2 2 4 3 4 4 3 3 2 5 6 10 6 8 9 9 12 13
11 13 14 15 13 10 7 2 1 1 1 3 2 4 2 3 3 3 3 2 2 2 2 2 2 5 1 2 4 2 5 9 3 3 5 5 6 5 10 10 11 13 12 14
12 12 15 17 15 9 6 2 2 1 0 2 4 2 2 3 4 2 1 1 2 2 1 2 2 2 2 2 2 4 4 9 9 1 5 5 2 13 13 15 13 14 13 13
13 15 16 16 16 9 3 4 3 2 1 2 5 2 3 2 3 4 4 3 2 1 2 1 2 2 2 3 4 3 4 4 3 3 5 4 8 13 14 13 12 14 14 14
13 15 13 12 11 4 3 2 2 7 2 1 3 2 4 4 5 4 2 1 1 1 1 3 3 3 4 3 3 2 4 5 4 4 11 10 9 9 12 11 13 13 11 13
15 12 9 7 7 7 3 2 3 5 1 0 3 4 3 2 2 2 2 1 1 2 1 2 1 4 4 2 2 8 7 6 1 4 7 2 5 6 13 11 11 13 9 8
13 8 4 15 19 11 3 4 7 5 2 2 1 4 4 4 3 3 1 2 3 2 2 1 2 3 3 3 3 5 7 7 2 8 4 4 8 8 9 9 9 11 11 12
9 2 9 5 4 2 1 8 3 5 2 2 2 1 3 3 2 2 2 2 2 2 1 2 3 2 4 3 4 6 6 4 7 9 6 7 7 10 11 11 12 11 12 12
4 4 3 2 1 7 3 5 3 4 4 3 1 0 2 2 2 3 2 2 1 2 1 2 3 2 3 3 3 4 6 6 7 5 7 9 9 10 11 11 10 10 10 11
3 2 1 1 4 2 3 2 3 3 4 2 1 1 1 2 1 2 1 1 1 2 2 2 2 2 3 6 6 5 6 6 6 5 5 6 6 8 9 10 11 10 11 11
3 2 3 2 3 3 5 1 3 2 1 3 1 2 2 3 1 2 2 1 2 4 1 3 1 2 3 5 5 5 6 7 6 5 6 7 7 7 7 8 9 10 10 11
2 2 2 3 3 5 4 1 3 2 2 3 4 4 2 2 1 0 2 1 4 1 3 1 2 2 4 5 4 5 5 6 6 7 6 6 6 7 6 8 8 9 9 9
3 3 1 2 3 2 3 3 3 0 1 1 1 3 2 1 1 1 1 2 1 2 1 1 1 2 4 5 4 3 5 5 5 6 6 6 6 6 6 7 7 7 8 9
2 3 3 2 2 3 1 1 2 2 1 2 3 3 0 2 2 1 2 4 1 1 1 1 1 3 4 5 5 4 4 4 4 4 5 6 6 5 5 6 6 6 6 8
3 4 2 0 2 1 2 2 0 1 1 1 1 1 2 2 1 3 1 1 3 1 1 1 2 3 4 5 6 5 3 4 4 3 3 4 5 5 5 5 5 6 5 6
3 0 2 2 3 3 2 2 2 1 2 1 2 2 5 1 3 1 1 2 0 2 2 2 1 2 4 4 5 5 5 4 4 3 2 3 4 4 4 7 6 6 6 4
Wind_Direction
16 9 357 351 348 322 63 40 336 311 336 349 8 253 222 303 280 48 290 301 253 247 287 263 260 251 245 63 38 299 124 302 275 238 272 179 358 170 159 240 301 279 257 272
19 15 6 14 16 354 28 333 282 316 21 3 318 293 292 269 312 332 309 259 219 61 282 303 275 285 286 183 116 324 357 230 297 325 23 54 237 263 222 280 249 246 262 276
20 15 12 11 10 12 67 54 336 1 54 106 276 321 312 317 342 280 285 281 330 285 257 230 275 267 300 351 268 312 332 228 224 248 253 312 297 308 294 231 275 287 269 294
24 15 10 11 3 359 76 21 310 84 299 327 293 276 288 314 310 353 312 322 232 316 290 297 252 270 315 285 271 176 233 260 241 257 263 264 270 269 286 280 257 262 289 292
18 15 8 3 9 360 72 65 11 184 281 230 280 332 313 289 313 293 295 243 331 311 295 275 285 277 298 266 321 232 221 255 263 279 264 259 267 266 255 264 278 267 286 304
15 8 3 12 12 35 79 12 60 104 279 336 312 329 351 329 322 288 287 304 314 308 294 304 295 272 267 250 258 248 245 246 33 276 274 305 289 242 254 285 91 289 329 352
22 11 2 3 22 55 122 214 109 6 288 300 284 328 307 292 303 286 284 298 254 265 299 294 276 264 261 261 258 246 256 263 224 263 46 265 229 112 58 113 44 33 351 348
6 9 1 1 11 132 96 151 93 28 283 262 311 288 268 299 296 273 266 266 234 317 311 313 343 329 350 300 207 252 237 244 248 248 203 304 43 30 9 321 77 27 356 348
359 358 353 343 347 32 108 228 170 195 282 263 215 265 223 280 298 303 268 299 310 358 291 4 344 289 248 310 331 10 60 230 217 59 163 221 266 339 339 305 186 12 0 348
340 330 326 334 339 333 133 265 179 135 254 267 140 298 301 207 237 249 294 309 341 29 354 290 243 270 213 310 295 331 346 343 260 252 239 297 356 314 311 202 310 355 358 346
341 343 340 335 341 338 305 236 192 182 239 271 210 214 230 278 225 260 274 321 337 353 20 243 308 329 312 294 252 267 277 4 271 304 315 277 348 348 36 333 328 348 348 339
341 342 337 321 313 322 325 229 195 167 247 268 219 216 237 241 255 268 240 232 200 292 308 265 262 288 325 236 303 323 314 3 306 353 40 64 32 68 22 351 334 345 334 334
336 335 336 321 300 293 301 248 161 78 252 271 331 293 353 37 9 226 280 309 240 309 324 323 260 253 115 266 262 286 27 15 9 236 30 1 41 36 18 354 341 336 340 327
339 333 324 326 314 269 278 198 154 193 44 289 282 339 32 322 4 57 352 335 3 329 312 260 256 241 207 252 59 61 344 334 334 18 16 324 154 22 0 345 344 341 335 335
327 327 325 321 310 268 107 81 44 352 271 305 297 288 349 328 25 50 46 73 67 342 318 261 255 258 310 74 84 49 356 350 345 301 15 282 288 344 356 343 337 335 329 337
332 329 322 325 325 182 127 78 29 23 1 303 306 274 339 330 6 23 48 104 164 160 205 248 270 51 355 75 74 84 356 325 286 305 315 287 294 301 352 334 329 324 336 333
333 333 331 328 83 63 79 81 5 5 31 2 317 328 309 310 339 2 18 233 271 150 268 272 35 23 36 56 65 345 347 332 303 310 316 342 2 320 321 324 317 323 316 332
332 335 98 88 95 108 53 1 9 351 99 81 55 280 360 359 326 341 354 15 16 307 249 355 61 16 52 69 343 338 335 332 315 345 326 264 288 307 328 333 337 346 352 347
351 50 110 65 40 48 255 339 55 33 113 151 87 73 278 360 296 250 345 67 351 291 37 66 75 14 51 343 319 343 344 343 305 320 320 331 343 346 349 352 356 355 350 350
32 56 55 52 347 308 348 11 27 15 335 37 99 56 296 39 348 316 6 19 304 321 317 88 68 79 118 335 320 343 345 341 346 338 352 350 353 353 350 355 352 352 349 347
50 40 106 223 350 64 31 36 72 323 17 352 13 124 282 335 39 265 49 259 297 350 262 112 76 72 314 339 352 354 352 351 1 353 349 348 344 345 346 351 356 355 356 355
185 136 74 41 39 38 83 331 322 68 238 351 352 296 234 294 46 82 326 223 32 252 339 74 54 275 322 344 334 342 355 354 360 4 358 352 358 352 349 349 354 354 351 355
56 71 40 54 315 43 103 239 305 1 350 355 357 313 224 331 113 52 27 313 232 316 44 80 216 326 337 330 324 336 353 359 0 359 358 356 355 360 0 352 350 346 353 355
100 110 344 118 311 247 182 175 181 93 52 326 238 257 217 247 62 148 298 250 8 1 36 264 269 298 316 327 320 334 340 352 353 353 349 353 355 348 353 359 348 351 359 352
125 95 210 194 159 55 85 94 97 16 332 19 2 302 24 320 19 103 351 356 7 132 303 36 337 324 324 328 331 327 332 336 338 340 351 356 353 355 343 344 343 350 354 360
73 47 98 44 81 318 32 26 12 318 21 15 59 269 49 330 90 48 178 115 236 206 350 3 334 349 338 332 328 322 320 324 330 331 348 356 357 346 327 323 351 345 348 353
71 307 15 74 72 120 136 144 246 7 78 182 95 87 218 339 55 54 354 181 42 335 359 360 43 337 315 317 326 333 333 328 335 321 330 355 340 330 3 3 339 341 344 337